Miscellaneous Local Product
Issued by NWS North Platte, NE

Home | Current Version | Previous Version | Text Only | Print | Product List | Glossary On
Versions: 1 2 3 4 5 6 7 8 9 10 11 12 13 14 15 16 17 18 19 20 21 22 23 24 25 26 27 28 29 30 31 32 33 34 35 36 37 38 39 40 41 42 43 44 45 46 47 48 49 50
411
AXUS43 KLBF 290110
MISLBF


WESTERN AND NORTH CENTRAL NEBRASKA HOURLY WEATHER ROUNDUP
NATIONAL WEATHER SERVICE NORTH PLATTE NE
800 PM CDT WED SEP 28 2016

NOTE: "FAIR" INDICATES FEW OR NO CLOUDS BELOW 12,000 FEET WITH NO
SIGNIFICANT WEATHER AND/OR OBSTRUCTIONS TO VISIBILITY.

NOTE: STATIONS NOT REPORTING VARIABLES SUCH AS SKY/WEATHER OR
PRESSURE ARE PROVIDED BY RAWS AND APRS NETWORKS AND ARE NOT UNDER
NATIONAL WEATHER SERVICE QUALITY CONTROL.

...OBSERVATIONS IN AND NEAR THE EASTERN PANHANDLE OF NEBRASKA...

CITY           SKY/WX    TMP DP  RH WIND       PRES   REMARKS
PINE RIDGE     CLEAR     66  44  45 E9        30.28R
CHADRON        CLEAR     69  44  40 NE8       30.26R
ALLIANCE       CLEAR     65  43  44 E9        30.28R
SIDNEY         CLEAR     64  37  36 E9        30.32R
$$

...OBSERVATIONS IN NORTHERN NEBRASKA AND FAR SOUTHERN SOUTH DAKOTA...

CITY           SKY/WX    TMP DP  RH WIND       PRES   REMARKS
WINNER         FAIR      55  46  71 E9        30.31R
VALENTINE      CLEAR     57  35  43 E8        30.31R
THEDFORD       CLEAR     59  32  36 E3        30.31R
AINSWORTH      CLEAR     56  47  72 E6        30.31R
O`NEILL        CLEAR     56  43  62 E3        30.32R
ORD            CLEAR     58  41  53 NE7       30.28R
BROKEN BOW     CLEAR     58  45  62 NE6       30.29R
$$

...OBSERVATIONS IN SOUTHWEST NEBRASKA AND FAR NORTHEAST COLORADO...

CITY           SKY/WX    TMP DP  RH WIND       PRES   REMARKS
WRAY           FAIR      70  36  28 E8        30.28R
HOLYOKE        FAIR      66  37  34 E8        30.29R
IMPERIAL       CLEAR     65  39  38 E9        30.28R
OGALLALA       CLEAR     68  41  37 E7        30.28R
NORTH PLATTE   CLEAR     60  35  39 NE8       30.28R
MCCOOK         CLEAR     63  40  42 E9        30.26R
LEXINGTON      CLEAR     56  41  56 E8        30.28R
GOTHENBURG       N/A     71  29  21 CALM        N/A
CALLAWAY         N/A     67  31  26 E3          N/A
$$

...OBSERVATIONS IN CENTRAL LINCOLN COUNTY AREA...

CITY           SKY/WX    TMP DP  RH WIND       PRES   REMARKS
N.P. AIRPORT   CLEAR     60  35  39 NE8       30.28R
$$

...SOME OBSERVATIONS FROM AROUND THE REGION...

CITY           SKY/WX    TMP DP  RH WIND       PRES   REMARKS
DENVER         PTCLDY    70  30  22 E12       30.29R
LARAMIE        CLEAR     61  31  32 SE12      30.39R
CHEYENNE       CLEAR     65  36  34 E10       30.36R
SCOTTSBLUFF    CLEAR     65  46  50 E5        30.28R
RAPID CITY     CLEAR     62  43  49 E12       30.29R
BISMARCK       CLEAR     56  47  71 E9        30.33R
PIERRE         CLEAR     58  42  55 E6        30.29R
SIOUX FALLS    CLEAR     53  46  77 CALM      30.32R
OMAHA          PTCLDY    55  47  74 N6        30.27R
GRAND ISLAND   CLEAR     54  43  66 NE8       30.28R
KANSAS CITY    MOCLDY    58  47  66 NE12      30.22R
WICHITA        PTCLDY    66  48  52 N10       30.20R
OKLAHOMA CITY  PTCLDY    75  46  35 N12       30.11R
DALLAS         PTCLDY    81  53  37 SW7       30.03R
AMARILLO       CLEAR     73  38  27 E9        30.23R
DODGE CITY     CLEAR     62  44  51 NE6       30.25R
HAYS           CLEAR     61  36  39 E9        30.25R
GOODLAND       CLEAR     63  43  48 E9        30.27R
$$




USA.gov is the U.S. government's official web portal to all federal, state and local government web resources and services.